User: anonymous   Login
Location: Cruquius
(52.3348°N, 4.6319°E)
Time: 02:20:45
(UTC+00:00)
Language:

Cosmos 2242 Rocket - Orbit

View from above orbital plane
View from above orbital plane
View from above satellite
View from above satellite

Ground track
Ground track

The orbit data is extracted from the following two-line orbital elements,

1 22627U 93024B   21208.58183654  .00000092  00000-0  93420-5 0  9994
2 22627  82.5238 145.7825 0025038 100.6938 259.7096 14.78214600523940
Epoch (UTC): 27 July 2021 13:57:50
Eccentricity: 0.0025038
inclination: 82.5238°
perigee height: 617 km
apogee height: 652 km
right ascension of ascending node: 145.7825°
argument of perigee: 100.6938°
revolutions per day: 14.78214600
mean anomaly at epoch: 259.7096°
orbit number at epoch: 52394

The dashed part of the orbit path shows where the satellite is in the earth's shadow,  

DLR